This is the latest recevied weather packets stored in our database for station/object ES0THZ-13. If no packets are shown the sender has not sent any weather packets the latest 10 day(s).
| Time | Temp. | Humidity | Pressure | Rain* | Wind** | Luminosity | Snow |
|---|---|---|---|---|---|---|---|
| 1777818736 | 21.67° C | 55% | 1003.2 hPa | - | - | - | - |
| 1777817686 | 20° C | 57% | 1004 hPa | - | - | - | - |
| 1777816546 | 20.56° C | 56% | 1005.2 hPa | - | - | - | - |
| 1777815461 | 20.56° C | 55% | 1004.4 hPa | - | - | - | - |
| 1777814441 | 22.22° C | 55% | 1003.1 hPa | - | - | - | - |
| 1777813411 | 22.22° C | 56% | 1003.1 hPa | - | - | - | - |
| 1777812321 | 22.22° C | 56% | 1002.8 hPa | - | - | - | - |
| 1777811301 | 22.22° C | 56% | 1003.2 hPa | - | - | - | - |
| 1777810196 | 22.78° C | 57% | 1003.3 hPa | - | - | - | - |
| 1777809191 | 22.78° C | 57% | 1004.1 hPa | - | - | - | - |
| 1777808171 | 22.22° C | 58% | 1003.7 hPa | - | - | - | - |
| 1777807106 | 22.22° C | 59% | 1003.4 hPa | - | - | - | - |
| 1777805996 | 21.11° C | 60% | 1003.8 hPa | - | - | - | - |
| 1777804886 | 20° C | 61% | 1003.1 hPa | - | - | - | - |
| 1777803886 | 17.78° C | 62% | 1004.2 hPa | - | - | - | - |
| 1777802736 | 21.11° C | 61% | 1003 hPa | - | - | - | - |
| 1777801733 | 21.11° C | 63% | 1003.4 hPa | - | - | - | - |
| 1777799651 | 18.89° C | 66% | 1004.3 hPa | - | - | - | - |
| 1777798521 | 17.22° C | 67% | 1004 hPa | - | - | - | - |
| 1777797401 | 17.22° C | 69% | 1004 hPa | - | - | - | - |
| 1777796276 | 16.11° C | 69% | 1003.2 hPa | - | - | - | - |
| 1777795206 | 15.56° C | 71% | 1003.9 hPa | - | - | - | - |
| 1777794141 | 13.33° C | 71% | 1003 hPa | - | - | - | - |
| 1777793086 | 15° C | 71% | 1003.7 hPa | - | - | - | - |
| 1777792041 | 15° C | 71% | 1004.3 hPa | - | - | - | - |
* Rain since midnight (hover to see other rain measurements)
** Current wind speed in m/s (hover to see current wind gust speed)